Home > Weather > Bamako > Past weeks

Flag for Mali Weather for the Past 2 Weeks in Bamako, Mali

Now
72 °F

Clear.


Feels Like: 74 °F
Forecast: 61 / 95 °F
Wind: 8 mph from Northeast

Location: Bamako / Senou

Current Time: Feb 14, 2016 at 2:23:55 AM

Latest Report: Feb 14, 2016 at 1:30 AM


Visibility: 4 mi

Pressure: 30.01 "Hg

Humidity: 19%

Dew point: 27 °F

Location of BamakoLocation

Historic Weather in Bamako — Graph

°F

Bamako Temperature Yesterday

Maximum temperature yesterday: 93 °F (at 2:30 PM)
Minimum temperature yesterday: 61 °F (at 6:30 AM)
Average temperature yesterday: 77 °F

High & Low Weather Summary for the Past Weeks

 TemperatureHumidityPressure
High95 °F (Feb 7, 4:00 PM)48% (Feb 1, 2:00 AM)30.15 "Hg (Feb 1, 2:00 AM)
Low59 °F (Feb 3, 5:00 AM)7% (Feb 11, 5:00 PM)29.89 "Hg (Feb 13, 3:30 PM)
Average78 °F18%30.01 "Hg
* Reported Jan 30 1:00 AM — Feb 14 1:00 AM, Bamako, Weather by CustomWeather, © 2016

Note: Actual official high and low records may vary slightly from our data, if they occured in-between our weather recording intervals... More about our weather records

Advertising

Bamako Weather History for the Previous 24 Hours

 ConditionsComfort  
Time TempWeatherWind HumidityBarometerVisibility
1:00 AM
Sun, Feb 14
68 °FClear.9 mph26%30.01 "Hg4 mi
12:30 AM70 °FClear.9 mph23%30.01 "Hg4 mi
12:00 AM77 °FClear.7 mph21%30.01 "Hg4 mi
11:30 PM
Sat, Feb 13
70 °FClear.9 mph25%30.04 "Hg4 mi
11:00 PM70 °FClear.7 mph23%30.04 "Hg4 mi
10:30 PM73 °FClear.9 mph20%30.04 "Hg4 mi
10:00 PM73 °FClear.9 mph20%30.04 "Hg4 mi
9:30 PM75 °FClear.9 mph16%30.01 "Hg4 mi
9:00 PM75 °FClear.9 mph16%30.01 "Hg4 mi
8:30 PM77 °FClear.8 mph15%30.01 "Hg4 mi
8:00 PM75 °FClear.6 mph18%29.98 "Hg4 mi
7:30 PM79 °FClear.6 mph15%29.98 "Hg4 mi
7:00 PM81 °FPleasantly warm.2 mph13%29.95 "Hg4 mi
6:00 PM90 °FClear.12 mph9%29.92 "Hg4 mi
5:30 PM91 °FClear.8 mph8%29.92 "Hg4 mi
5:00 PM91 °FClear.10 mph8%29.92 "Hg4 mi
4:30 PM93 °FClear.9 mph8%29.89 "Hg4 mi
4:00 PM93 °FClear.8 mph8%29.89 "Hg4 mi
3:30 PM93 °FClear.8 mph8%29.89 "Hg4 mi
3:00 PM93 °FClear.6 mph8%29.92 "Hg4 mi
2:30 PM93 °FClear.8 mph8%29.92 "Hg4 mi
2:00 PM91 °FClear.8 mph8%29.95 "Hg4 mi
1:30 PM91 °FClear.9 mph9%29.95 "Hg4 mi
1:00 PM90 °FClear.7 mph9%29.98 "Hg4 mi
12:30 PM90 °FClear.9 mph10%29.98 "Hg4 mi
12:00 PM88 °FClear.12 mph9%30.01 "Hg4 mi
11:30 AM88 °FClear.10 mph9%30.01 "Hg4 mi
11:00 AM86 °FClear.14 mph10%30.01 "Hg4 mi
10:30 AM82 °FClear.13 mph12%30.04 "Hg5 mi
10:00 AM81 °FClear.14 mph14%30.04 "Hg5 mi
9:30 AM79 °FClear.14 mph15%30.04 "Hg5 mi
9:00 AM75 °FClear.13 mph18%30.01 "Hg5 mi
8:30 AM72 °FSunny.10 mph23%30.01 "Hg10 mi
8:00 AM68 °FSunny.7 mph30%30.01 "Hg10 mi
7:30 AM63 °FSunny.9 mph37%29.98 "Hg10 mi
7:00 AM61 °FSunny.6 mph39%29.98 "Hg10 mi
6:30 AM61 °FClear.2 mph39%29.98 "Hg10 mi
6:00 AM63 °FClear.7 mph37%29.95 "Hg10 mi
5:30 AM63 °FClear.3 mph34%29.95 "Hg10 mi
5:00 AM63 °FClear.8 mph34%29.95 "Hg10 mi
4:30 AM64 °FClear.9 mph32%29.95 "Hg10 mi
4:00 AM64 °FClear.6 mph30%29.95 "Hg10 mi
3:30 AM66 °FClear.8 mph28%29.95 "Hg10 mi
2:30 AM75 °FClear.10 mph16%29.98 "Hg10 mi
2:00 AM72 °FClear.9 mph20%29.98 "Hg10 mi
Weather by CustomWeather, © 2016

See weather overviewHow to use our weather pages